Total_Precipitation_Accumulation
2.54 3.29 3.98 4.47 5.09 5.89 6.41 6.31 5.70 5.31 4.90 4.44 3.99 4.07 4.00 3.77 3.56 3.38 3.26 3.32 3.24 3.09 3.19 2.87 3.02 2.64 2.72 2.89 3.04 3.46 3.72 3.65 3.61 3.99 4.16 3.78 3.35 3.39 3.28 3.15 3.44 3.43 3.39
2.64 3.42 4.00 4.11 4.09 4.34 4.58 4.08 3.91 3.98 3.71 3.56 3.57 3.57 3.49 3.21 3.08 3.14 3.46 3.12 3.12 3.03 2.83 2.97 2.73 2.68 2.95 2.99 3.13 3.44 3.58 3.51 3.59 3.88 4.35 4.12 4.08 3.54 2.77 2.97 3.11 3.17 3.46
2.72 3.23 3.38 3.35 3.19 3.14 3.10 2.89 2.87 3.29 3.31 3.42 3.49 3.52 3.56 3.40 3.27 3.18 3.42 3.04 2.78 2.73 2.81 2.76 2.82 3.01 2.71 3.02 3.24 3.25 3.53 3.63 3.50 3.52 4.03 4.09 4.02 3.53 2.88 2.73 2.77 2.99 3.36
2.70 2.73 2.30 2.12 2.17 2.25 2.35 2.61 2.77 3.02 2.97 3.17 3.18 3.13 2.93 2.81 2.78 2.81 3.01 3.06 2.75 2.61 2.61 2.75 3.09 3.24 2.95 3.23 2.77 2.96 3.35 3.59 3.51 3.55 3.33 3.21 3.36 3.59 3.46 3.00 2.74 2.84 2.94
1.76 1.70 1.58 1.52 1.68 1.95 2.18 2.52 2.72 2.86 2.82 2.85 2.98 3.21 3.14 3.15 3.02 2.96 3.24 3.26 3.28 3.04 2.71 2.74 3.04 3.22 3.20 3.31 3.13 3.37 3.15 3.10 3.13 3.27 3.29 3.26 3.16 2.93 3.16 3.19 3.01 2.87 2.54
1.14 1.26 1.35 1.52 1.76 1.91 1.98 2.20 2.42 2.73 2.76 2.75 2.84 2.94 3.10 3.38 3.36 3.30 3.15 2.98 3.09 3.02 2.77 2.79 3.18 3.21 3.19 3.33 3.19 3.18 3.06 3.09 3.12 3.01 2.93 3.23 3.25 3.05 3.16 2.91 2.86 2.78 2.29
1.04 1.22 1.37 1.57 1.65 1.70 1.68 1.83 1.95 2.21 2.48 2.58 2.64 2.78 3.00 3.19 3.18 3.26 3.20 3.03 2.77 2.63 2.71 2.84 3.20 3.16 3.13 3.07 3.15 3.12 3.14 3.22 3.26 3.12 2.93 2.92 2.95 3.00 3.07 3.04 2.66 2.50 2.22
0.99 1.05 1.22 1.29 1.37 1.55 1.71 1.87 1.89 1.92 2.03 2.13 2.33 2.51 2.60 2.78 2.83 3.18 3.05 2.95 2.77 2.61 2.68 2.80 2.75 2.74 2.84 2.73 3.09 2.92 2.90 3.01 3.07 2.89 3.29 3.17 2.75 2.92 3.04 3.22 3.45 3.15 2.80
0.97 0.96 0.97 1.18 1.30 1.26 1.34 1.54 1.67 1.78 1.91 2.02 2.19 2.20 2.22 2.34 2.59 2.66 2.52 2.36 2.44 2.55 2.63 2.63 2.69 2.72 2.72 2.77 3.03 2.91 2.95 3.15 2.96 2.96 3.42 3.20 2.80 2.79 2.89 3.14 3.54 3.82 3.37
0.89 0.97 0.98 1.06 1.16 1.19 1.34 1.43 1.57 1.75 1.85 1.92 2.04 1.92 1.97 2.04 2.29 2.40 2.40 2.29 2.20 2.36 2.49 2.56 2.66 2.72 2.68 2.78 2.97 2.79 2.99 3.08 2.98 2.99 3.11 3.04 2.78 2.83 2.92 3.12 3.40 3.74 3.69
0.79 0.91 0.94 1.05 1.09 1.10 1.26 1.44 1.63 1.78 1.75 1.80 1.85 1.93 2.01 2.16 2.24 2.20 2.24 2.26 2.30 2.42 2.51 2.60 2.67 2.68 2.70 2.85 2.95 2.78 2.95 2.92 3.02 2.92 2.89 2.86 3.08 3.13 2.96 3.13 3.29 3.57 3.84
0.86 0.93 0.94 0.98 0.99 1.04 1.14 1.32 1.55 1.72 1.81 1.84 1.96 2.09 2.16 2.25 2.32 2.20 2.28 2.45 2.48 2.54 2.63 2.73 2.80 2.67 2.77 2.92 2.83 2.80 2.87 2.92 2.88 2.98 3.19 3.10 3.30 3.33 3.25 3.43 3.44 3.55 3.85
0.83 0.87 1.02 0.98 0.94 1.00 1.07 1.26 1.58 1.80 2.03 2.18 2.23 2.25 2.18 2.23 2.36 2.41 2.43 2.54 2.65 2.71 2.67 2.63 2.67 2.82 3.02 3.03 2.84 2.82 2.80 2.70 2.60 2.77 3.06 3.35 3.84 3.69 3.52 3.40 3.29 3.33 3.43
0.79 0.92 1.05 1.14 1.22 1.25 1.27 1.41 1.60 1.72 1.93 2.02 2.09 2.24 2.29 2.39 2.55 2.64 2.70 2.72 2.73 2.73 2.77 2.82 2.80 2.85 2.87 2.86 2.90 2.97 2.92 2.83 2.65 2.65 2.76 2.94 3.26 3.44 3.57 3.34 3.23 3.34 3.44
1.02 1.04 1.14 1.28 1.38 1.49 1.48 1.47 1.58 1.67 1.88 2.25 2.46 2.65 2.72 2.76 2.88 2.94 2.92 2.95 2.89 2.79 2.98 3.03 3.00 2.94 2.85 2.64 2.91 3.10 2.96 3.02 2.89 2.77 2.69 2.51 2.65 2.87 3.06 2.88 3.20 3.42 3.37
1.21 1.29 1.33 1.42 1.47 1.56 1.68 1.74 1.78 1.91 2.13 2.57 2.92 3.06 3.12 3.17 3.23 3.29 3.26 3.27 3.20 3.30 3.31 3.14 3.08 2.99 2.70 2.91 3.02 3.03 3.03 3.13 3.06 2.96 2.89 2.67 2.48 2.47 2.62 2.68 2.88 3.14 3.17
1.17 1.25 1.37 1.51 1.60 1.72 1.81 1.95 2.07 2.18 2.35 2.62 2.84 2.94 3.05 3.15 3.31 3.32 3.33 3.35 3.37 3.34 3.33 3.37 3.32 3.16 3.25 3.30 2.98 2.95 2.93 2.97 2.95 3.15 3.27 2.78 2.33 2.59 2.53 2.61 2.60 2.47 2.60
1.18 1.27 1.36 1.59 1.77 1.95 2.18 2.47 2.63 2.75 2.75 2.84 2.99 3.08 3.06 3.11 3.18 3.16 3.05 3.08 3.24 3.25 3.18 3.13 3.08 3.02 3.00 3.14 2.88 2.84 2.69 2.66 2.66 2.73 2.80 2.79 2.58 2.51 2.57 2.54 2.35 2.12 2.09
1.40 1.60 1.80 1.93 2.03 2.12 2.27 2.53 2.82 2.97 2.99 2.87 2.96 3.09 3.19 3.29 3.21 3.13 3.13 3.16 3.22 3.13 3.07 3.05 3.08 2.96 2.91 3.03 2.80 2.77 2.53 2.45 2.35 2.33 2.34 2.35 2.20 2.29 2.37 2.33 2.21 2.08 1.95
1.54 1.73 1.93 2.04 2.06 2.17 2.24 2.36 2.57 2.68 2.76 2.81 2.93 3.06 3.17 3.35 3.46 3.42 3.45 3.40 3.32 3.25 3.25 3.20 3.20 3.08 2.98 3.13 2.88 2.74 2.49 2.41 2.38 2.46 2.42 2.37 2.19 2.20 2.15 2.05 2.06 1.88 1.77
1.48 1.53 1.60 1.75 1.84 1.91 2.03 2.22 2.33 2.31 2.42 2.53 2.58 2.76 3.01 3.25 3.42 3.53 3.53 3.54 3.47 3.37 3.17 3.02 2.98 2.90 2.89 3.05 2.87 2.70 2.42 2.37 2.45 2.52 2.56 2.49 2.39 2.09 1.98 1.88 1.77 1.75 1.92
1.47 1.47 1.55 1.66 1.76 1.91 2.20 2.43 2.43 2.38 2.41 2.52 2.66 2.80 3.04 3.13 3.18 3.33 3.38 3.53 3.50 3.39 3.29 3.06 2.87 2.75 2.60 2.56 2.56 2.39 2.27 2.30 2.36 2.42 2.53 2.56 2.49 2.20 2.08 1.92 1.76 1.84 1.86
1.56 1.52 1.54 1.66 1.89 2.13 2.41 2.66 2.66 2.69 2.73 2.78 2.88 2.97 3.07 3.17 3.26 3.33 3.33 3.35 3.35 3.20 3.08 2.92 2.79 2.70 2.61 2.53 2.35 2.09 2.04 2.11 2.09 2.19 2.57 2.65 2.49 2.25 2.00 1.91 1.91 1.85 1.73
1.63 1.60 1.63 1.75 1.94 2.05 2.17 2.41 2.58 2.64 2.80 2.81 2.76 2.77 2.79 2.86 2.95 3.07 3.10 3.06 2.99 2.94 2.85 2.73 2.66 2.56 2.51 2.42 2.34 2.18 2.03 2.03 1.99 2.00 2.23 2.31 2.25 2.03 1.87 1.79 1.70 1.63 1.66
1.71 1.71 1.77 1.89 1.94 1.95 1.99 2.12 2.31 2.47 2.69 2.83 2.84 2.88 2.89 2.95 3.01 3.08 3.15 3.04 2.87 2.83 2.72 2.59 2.63 2.62 2.44 2.38 2.42 2.24 2.05 2.01 2.11 2.13 2.08 2.12 2.19 2.16 2.06 2.03 1.97 1.93 1.87
1.76 1.84 1.92 1.95 1.96 1.95 2.03 2.16 2.35 2.59 2.86 2.87 2.80 2.84 2.93 3.02 3.12 3.18 3.19 3.24 2.93 2.83 2.67 2.58 2.53 2.43 2.29 2.20 2.06 1.99 1.95 1.90 1.92 1.85 1.83 1.99 2.16 2.28 2.26 2.28 2.25 2.19 2.11